Voltar ao catálogo

USA 368

AtivoMilitarVLEO
NORAD 59828·PAYLOAD·🇺🇸 United States

Lançado May 22, 2024 de Vandenberg Space Force Base

Loading…

Próximas Passagens (próximas 24 horas)

TLE

ObsoletoSource: Mike McCants

Época: Aug 17, 2026, 22:16 UTC

1 59828U 24096Q   26229.92782873 0.00000000  00000-0  00000-0 0    03
2 59828  70.0240 157.1148 0002000 229.9860 130.0139 14.96714586    00

Acompanhe USA 368 em tempo real com AllMySat

Download on the App Store